Location: Lalanga
(4.5882°N, 32.9072°E)
Time: 04:22:03
(UTC+00:00)

Cosmos 2056 Rocket - Pass Details

Date: 24 January 2020
Orbit: 741 x 801 km, 74.0° (Epoch: 19 February)

Event Time Altitude Azimuth Distance (km) Brightness Sun altitude
Rises 17:11:25 0° 204° (SSW) 3,182 7.3 -18.3°
Reaches altitude 10° 17:13:50 10° 209° (SSW) 2,263 6.6 -18.8°
Maximum altitude 17:18:45 47° 283° (WNW) 988 4.4 -20.0°
Drops below altitude 10° 17:23:44 10° 356° (N) 2,290 5.8 -21.2°
Enters shadow 17:24:52 - 360° (N) 2,720 6.2 -21.4°
